Flag for Sudan Weather past 2 weeks in Khartoum, Sudan

Now
91 °F

Sunny.


Feels Like: 88 °F
Forecast: 86 / 111 °F
Wind: 6 mph from Northeast

Location: Khartoum Airport


UV Index: 10 (Very high)

Visibility: 10 mi


Pressure: 29.77 "Hg

Humidity: 20%

Dew point: 45 °F

Location of KhartoumLocation

Historic Weather in Khartoum

°F

Khartoum temperature yesterday

Maximum temperature yesterday: 108 °F (at 3:00 PM)
Minimum temperature yesterday: 84 °F (at 6:00 AM)
Average temperature yesterday: 96 °F

Past Weeks' High & Low Weather Summary

 TemperatureHumidityPressure
High109 °F (Apr 9, 4:00 PM)39% (Apr 12, 7:00 AM)29.98 "Hg (Apr 12, 7:00 AM)
Low72 °F (Apr 4, 7:00 AM)3% (Apr 5, 3:00 PM)29.62 "Hg (Apr 17, 4:30 PM)
Average92 °F12%29.80 "Hg
* Reported Apr 3 9:00 AM — Apr 18 9:00 AM, Khartoum, Weather by CustomWeather, © 2014

Note: Actual official high and low records may vary slightly from our data, if they occured in-between our weather recording intervals... More about our weather records

Advertising

Historic Weather Conditions — Data for Previous 24 hours

 ConditionsComfort  
Time TempWeatherWind HumidityBarometerVisibility
9:00 AM
Apr 18
91 °FSunny.6 mph20%29.77 "Hg10 mi
8:00 AM88 °FSunny.3 mph19%29.77 "Hg10 mi
7:30 AMN/ASunny.6 mphN/A29.77 "Hg10 mi
7:00 AM88 °FSunny.5 mph17%29.74 "Hg10 mi
6:30 AMN/AClear.6 mphN/A29.74 "Hg10 mi
6:00 AM88 °FClear.6 mph15%29.71 "Hg10 mi
5:30 AMN/AClear.6 mphN/A29.71 "Hg10 mi
5:00 AM90 °FClear.9 mph13%29.71 "Hg10 mi
4:30 AMN/AClear.7 mphN/A29.71 "Hg10 mi
4:00 AM90 °FClear.8 mph10%29.71 "Hg10 mi
3:30 AMN/AClear.9 mphN/A29.71 "Hg10 mi
2:30 AMN/AClear.9 mphN/A29.68 "Hg10 mi
2:00 AM93 °FClear.9 mph8%29.68 "Hg10 mi
1:30 AMN/AClear.12 mphN/A29.68 "Hg10 mi
1:00 AM93 °FClear.12 mph8%29.68 "Hg10 mi
12:30 AMN/AClear.9 mphN/A29.71 "Hg10 mi
12:00 AM95 °FClear.10 mph10%29.71 "Hg10 mi
11:30 PM
Apr 17
N/AClear.9 mphN/A29.71 "Hg10 mi
11:00 PM97 °FClear.12 mph9%29.74 "Hg10 mi
10:30 PMN/AClear.14 mphN/A29.71 "Hg10 mi
10:00 PM97 °FClear.12 mph9%29.71 "Hg10 mi
9:30 PMN/AClear.10 mphN/A29.68 "Hg10 mi
9:00 PM99 °FClear.7 mph10%29.68 "Hg10 mi
8:00 PM102 °FClear.7 mph9%29.65 "Hg10 mi
7:30 PMN/AClear.9 mphN/A29.65 "Hg10 mi
7:00 PM104 °FSunny.7 mph8%29.65 "Hg10 mi
6:30 PMN/ASunny.7 mphN/A29.62 "Hg10 mi
6:00 PM108 °FSunny.9 mph5%29.62 "Hg10 mi
5:30 PMN/ASunny.12 mphN/A29.62 "Hg10 mi
5:00 PM108 °FSunny.14 mph5%29.62 "Hg10 mi
4:30 PMN/ASunny.12 mphN/A29.62 "Hg10 mi
4:00 PM108 °FSunny.12 mph8%29.65 "Hg10 mi
3:30 PMN/ASunny.12 mphN/A29.68 "Hg10 mi
3:00 PM108 °FSunny.12 mph6%29.71 "Hg10 mi
2:00 PM106 °FSunny.12 mph7%29.71 "Hg10 mi
1:30 PMN/A10 mphN/A29.71 "HgN/A
1:00 PM106 °FSunny.14 mph7%29.74 "Hg10 mi
12:30 PMN/ASunny.14 mphN/A29.74 "Hg10 mi
12:00 PM102 °FSunny.13 mph11%29.77 "Hg10 mi
11:30 AMN/ASunny.10 mphN/A29.77 "Hg10 mi
11:00 AM97 °FHaze.8 mph19%29.77 "Hg5 mi
10:30 AMN/AHaze.7 mphN/A29.77 "Hg5 mi
10:00 AM93 °FHaze.5 mph20%29.77 "Hg5 mi
9:30 AMN/AHaze.7 mphN/A29.77 "Hg4 mi
9:00 AM88 °FPleasantly warm.9 mph19%29.77 "Hg4 mi
Weather by CustomWeather, © 2014

See weather overview